Location: Bogis-Bossey
(46.3500°N, 6.1667°E)
Time: 17:21:38
(UTC+00:00)

Meteor 2-9 Rocket - Pass Details

Date: 17 August 2022
Orbit: 792 x 894 km, 81.3° (Epoch: 30 September)

Event Time Altitude Azimuth Distance (km) Brightness Sun altitude
Exits shadow 23:10:47 64° 13° (NNE) 895 4.4 -30.1°
Drops below altitude 10° 23:15:22 10° 11° (NNE) 2,421 7.4 -30.2°
Sets 23:17:47 0° 12° (NNE) 3,372 8.4 -30.3°
